083  
ASUS43 KDMX 300906  
RWRIA  
 
WEATHER ROUNDUP FOR IOWA  
NATIONAL WEATHER SERVICE DES MOINES IA  
400 AM CDT TUE MAY 30 2017  
 
NOTE: "FAIR" INDICATES FEW OR NO CLOUDS BELOW 12,000 FEET WITH NO  
SIGNIFICANT WEATHER AND/OR S TO VISIBILITY
.  
 
* - THESE STATIONS ARE NOT NWS STATIONS...THUS NOT UNDER NWS  
QUALITY CONTROL. THEY ALSO DO NOT REPORT WEATHER SUCH  
AS PRECIPITATION OR FOG.
 
 
IAZ001>003-012>014-020>022-031>034-043>046-301000-  
NORTHWEST IOWA  
 
CITY SKY/WX TMP DP RH WIND PRES REMARKS
 
CARROLL * CLOUDY 54 46 76 W7 30.00S  
CHEROKEE * CLOUDY 50 45 83 SW3 30.00S  
DENISON * PTCLDY 50 45 81 CALM 30.03S  
LE MARS * CLOUDY 52 45 76 SW7 30.02S  
ORANGE CITY * CLOUDY 52 45 76 W6 30.00S  
SHELDON * CLOUDY 54 43 66 W6 29.98S  
SIOUX CITY CLOUDY 50 45 83 CALM 30.02S  
SPENCER MOCLDY 47 43 86 W6 29.98F  
STORM LAKE * CLOUDY 52 43 71 W9 30.00S  

 
 
IAZ055>058-069>071-079>083-090>094-301000-  
SOUTHWEST IOWA  
 
CITY SKY/WX TMP DP RH WIND PRES REMARKS
 
ATLANTIC * MOCLDY 50 46 87 S6 30.03S  
AUDUBON * CLOUDY 50 45 81 CALM 30.02S  
CLARINDA * CLEAR 46 46 100 CALM 30.07S  
COUNCIL BLFS * CLEAR 54 46 76 S7 30.04S  
CRESTON * CLOUDY 54 45 71 SW7 30.05S  
HARLAN * PTCLDY 50 48 93 S3 30.06S  
LAMONI CLEAR 52 44 74 W5 30.04S  
RED OAK * MOCLDY 46 45 93 CALM 30.04F  
SHENANDOAH * CLEAR 48 45 87 CALM 30.05S  

 
 
IAZ047>049-059>061-072>074-084-301000-  
CENTRAL IOWA  
 
CITY SKY/WX TMP DP RH WIND PRES REMARKS
 
AMES PTCLDY 50 46 86 SW6 29.99S  
ANKENY * CLEAR 48 46 93 CALM 30.02S  
BOONE * MOCLDY 52 50 93 SW7 29.99S  
CHARITON * CLEAR 52 45 76 W6 30.02S  
DES MOINES PTCLDY 55 45 68 CALM 30.01S  
GRINNELL* PTCLDY 50 46 83 SW8 30.01S  
KNOXVILLE * CLEAR 52 45 76 SW6 30.01S  
MARSHALLTOWN CLEAR 48 45 89 SW7 29.98S  
NEWTON * PTCLDY 50 46 87 W6 30.00S  
PELLA * CLEAR 54 47 77 W6 30.02S  
PERRY * N/A 50 46 85 SW6 30.01S  

 
 
IAZ004>006-015-016-023>025-035-036-301000-  
NORTH CENTRAL IOWA  
 
CITY SKY/WX TMP DP RH WIND PRES REMARKS
 
ALGONA * CLEAR 48 45 87 W9 29.97F  
CLARION * CLEAR 48 46 93 SW8 29.98S  
ESTHERVILLE CLOUDY 49 45 86 W9 29.95F  
FORT DODGE * CLEAR 46 41 81 CALM 29.99S  
MASON CITY CLEAR 50 45 83 W12 29.97R  
FOREST CITY * N/A 46 39 76 W6 29.95F  
WEBSTER CITY * PTCLDY 48 43 81 SW8 29.97S  
IOWA FALLS * N/A 51 46 84 SW9 29.99S  

 
 
IAZ007>011-017>019-026>030-037>042-050>054-066-301000-  
NORTHEAST IOWA  
 
CITY SKY/WX TMP DP RH WIND PRES REMARKS
 
CEDAR RAPIDS CLEAR 49 47 93 W9 29.97R  
CHARLES CITY * CLEAR 52 46 82 W7 29.95S  
CLINTON * PTCLDY 51 47 86 W9 29.96R  
DECORAH * CLEAR 50 46 87 CALM 29.92R  
DUBUQUE CLEAR 51 46 83 W10 29.94R  
MONTICELLO * CLEAR 54 46 76 W10 29.95S  
OELWEIN * CLEAR 50 46 87 W8 29.96S  
WATERLOO CLEAR 49 45 86 SW7 29.95F  

 
 
IAZ064-065-067-068-078-301000-  
EAST CENTRAL IOWA  
 
CITY SKY/WX TMP DP RH WIND PRES REMARKS
 
DAVENPORT PTCLDY 54 46 74 W9 29.97R  
IOWA CITY CLEAR 51 45 79 W5 30.00R  
MT. PLEASANT * CLEAR 51 45 80 W5 30.01R  
MUSCATINE * CLEAR 54 46 76 W5 29.99S  
QUAD CITIES PTCLDY 54 46 74 W6 29.97R  

 
 
IAZ062-063-075>077-085>089-095>099-301000-  
SOUTHEAST IOWA  
 
CITY SKY/WX TMP DP RH WIND PRES REMARKS
 
BURLINGTON CLEAR 54 46 74 NW6 30.00R  
FAIRFIELD * CLEAR 52 45 76 W7 30.01R  
FORT MADISON * CLEAR 54 46 76 W6 30.02R  
KEOKUK * CLEAR 52 45 76 W3 30.01S  
OSKALOOSA * N/A 51 45 78 W7 30.02R  
CENTERVILLE * N/A 50 45 81 CALM 30.05S  
OTTUMWA CLEAR 51 46 83 W8 30.01S  
WASHINGTON * CLEAR 52 46 82 W6 30.01R  

 
 
ABBREVIATIONS USED IN REMARKS  
TC - TEMPERATURES IN CELSIUS  
WCI - WIND CHILL INDEX  
HX - HEAT INDEX  
VSB - VISIBILITY  

 
 
 
 
CLICK HERE TO GO TO PREVIOUS BULLETINS.

The Nexlab IA Page Main Text Page